Home   Weather   Tashkent   Past weeks

Flag for Uzbekistan Past Weather in Tashkent, Uzbekistan — Yesterday and Last 2 Weeks

Now
43 °F

Clear.


Feels Like: 37 °F
Forecast: 39 / 63 °F
Wind: 9 mph from East

Location: Tashkent

Current Time: Apr 29, 2017 at 1:00:54 am

Latest Report: Apr 29, 2017 at 12:00 am


Visibility: 10 mi

Pressure: 30.45 "Hg

Humidity: 76%

Dew Point: 36 °F

Location of TashkentLocation

Past Weather in Tashkent — Graph

°F

Tashkent Temperature Yesterday

Maximum temperature yesterday: 61 °F (at 3:00 pm)
Minimum temperature yesterday: 45 °F (at 11:30 pm)
Average temperature yesterday: 53 °F

High & Low Weather Summary for the Past Weeks

 TemperatureHumidityPressure
High88 °F (Apr 26, 3:30 pm)100% (Apr 17, 9:30 am)30.51 "Hg (Apr 17, 9:30 am)
Low43 °F (Apr 14, 4:30 am)18% (Apr 24, 12:00 pm)29.77 "Hg (Apr 20, 11:30 am)
Average65 °F60%30.06 "Hg
* Reported Apr 13 11:30 pm — Apr 28 11:30 pm, Tashkent, Weather by CustomWeather, © 2017

Note: Actual official high and low records may vary slightly from our data, if they occured in-between our weather recording intervals... More about our weather records

Advertising

Tashkent Weather History for the Previous 24 Hours

Scroll right to see more
 ConditionsComfort  
Time TempWeatherWind HumidityBarometerVisibility
11:30 pm
Fri, Apr 28
45 °FClear.7 mph71%30.45 "Hg10 mi
10:30 pm46 °FClear.9 mph66%30.48 "Hg10 mi
10:00 pm48 °FClear.9 mph58%30.48 "Hg10 mi
9:30 pm50 °FClear.9 mph54%30.51 "Hg10 mi
9:00 pm52 °FClear.9 mph50%30.51 "Hg10 mi
8:30 pm52 °FClear.12 mph50%30.51 "Hg10 mi
8:00 pm54 °FClear.12 mph44%30.51 "Hg10 mi
7:30 pm55 °FPassing clouds.7 mph36%30.48 "HgN/A
7:00 pm55 °FPassing clouds.7 mph31%30.48 "HgN/A
6:30 pm57 °FPassing clouds.7 mph31%30.48 "HgN/A
6:00 pm57 °FPassing clouds.12 mph29%30.48 "HgN/A
5:30 pm59 °FPassing clouds.12 mph29%30.48 "HgN/A
5:00 pm59 °FPassing clouds.14 mph27%30.48 "HgN/A
4:30 pm59 °FPassing clouds.12 mph27%30.45 "HgN/A
4:00 pm57 °FPassing clouds.12 mph29%30.45 "HgN/A
3:30 pm61 °FPassing clouds.9 mph27%30.45 "HgN/A
3:00 pm61 °FPassing clouds.9 mph29%30.45 "HgN/A
2:30 pm59 °FPassing clouds.12 mph27%30.45 "HgN/A
2:00 pm59 °FPassing clouds.14 mph31%30.45 "HgN/A
1:30 pm59 °FPassing clouds.14 mph34%30.45 "HgN/A
12:30 pm57 °FPassing clouds.12 mph36%30.45 "HgN/A
12:00 pm59 °FPassing clouds.14 mph36%30.45 "HgN/A
11:30 am59 °FPassing clouds.14 mph36%30.45 "HgN/A
10:30 am55 °FPassing clouds.14 mph41%30.45 "HgN/A
10:00 am57 °FScattered clouds.12 mph51%30.45 "HgN/A
9:30 am54 °FSunny.9 mph63%30.45 "Hg10 mi
9:00 am55 °FPartly sunny.5 mph72%30.42 "HgN/A
8:30 am52 °FPassing clouds.7 mph82%30.42 "HgN/A
8:00 am52 °FSunny.7 mph82%30.42 "Hg10 mi
7:30 am50 °FLow clouds.7 mph94%30.42 "HgN/A
7:00 am50 °FLow clouds.7 mph94%30.42 "Hg4 mi
6:30 am50 °FOvercast.7 mph94%30.42 "Hg4 mi
6:00 am50 °FPartly sunny.7 mph94%30.42 "Hg4 mi
5:30 am50 °FPartly sunny.5 mph94%30.42 "HgN/A
5:00 am50 °FPassing clouds.5 mph88%30.42 "HgN/A
4:30 am50 °FPassing clouds.2 mph88%30.42 "HgN/A
4:00 am50 °FPassing clouds.5 mph88%30.39 "HgN/A
3:30 am50 °FPassing clouds.2 mph82%30.39 "HgN/A
3:00 am50 °FFog.2 mph82%30.39 "Hg2 mi
2:30 am50 °FSprinkles. Fog.5 mph88%30.39 "Hg2 mi
2:00 am50 °FSprinkles. Fog.9 mph88%30.39 "Hg2 mi
1:30 am50 °FSprinkles. Fog.5 mph88%30.39 "Hg2 mi
1:00 am50 °FSprinkles. Fog.5 mph88%30.39 "Hg2 mi
Weather by CustomWeather, © 2017

See weather overviewHow to use our weather pages